Temperature
15 15 15 15 14 14 14 13 13 13 13 14 14 14 14 15 15 15 16 16 16 16 16 16 16 16 16 16 16 16 16 16 16 16 16 16 16 16
14 14 14 14 14 14 14 13 13 13 13 13 13 13 13 14 14 14 15 15 15 16 15 15 15 15 15 15 15 15 15 15 15 16 16 16 16 16
13 14 14 14 14 14 14 13 13 13 13 13 13 13 13 13 13 13 14 14 14 14 14 15 15 15 15 15 15 15 15 15 15 15 15 15 15 15
12 13 13 13 13 14 14 13 13 13 13 13 13 13 13 13 12 12 12 13 13 13 13 14 14 14 14 14 14 14 14 14 14 14 14 15 15 14
11 12 12 13 13 13 13 13 13 13 13 13 13 13 12 12 12 12 12 12 12 12 13 13 13 13 13 13 13 13 13 14 14 14 14 14 14 14
10 11 11 12 12 13 13 13 13 13 13 13 12 12 12 12 12 12 11 11 12 12 12 12 12 12 12 12 13 13 13 13 13 13 13 13 13 13
10 10 10 11 12 12 13 13 13 13 13 12 12 12 12 12 12 11 11 11 11 11 11 11 11 12 12 12 12 12 12 12 12 12 12 12 12 13
9 9 10 10 11 12 12 13 13 13 13 13 12 12 12 12 12 12 11 11 10 10 11 11 11 11 11 11 11 11 11 11 11 11 11 12 12 12
9 9 9 10 11 11 12 12 12 13 13 13 13 13 12 12 12 12 12 11 11 10 10 10 10 10 10 10 10 10 10 10 10 10 10 10 11 11
9 9 9 10 10 11 11 12 12 13 13 13 13 13 13 13 13 12 12 11 10 10 10 10 9 10 9 9 9 9 9 9 9 9 9 9 9 10
8 9 9 9 10 10 11 11 12 12 12 12 13 12 12 12 12 12 11 11 10 9 9 10 9 9 9 8 8 8 8 8 8 8 8 8 8 8
8 8 8 9 9 10 10 11 11 12 12 12 12 12 12 12 12 12 12 11 10 9 9 10 9 9 7 7 7 7 7 7 7 7 7 7 7 7
8 8 8 9 9 9 10 10 11 11 11 12 12 11 11 11 11 11 11 12 11 11 10 10 9 9 8 7 7 7 7 7 7 6 6 6 6 7
8 8 8 8 9 9 9 10 10 11 11 11 11 11 11 11 11 11 11 11 11 12 11 11 10 10 9 8 7 7 7 6 6 6 6 6 6 7
8 8 8 8 8 9 9 10 10 10 10 11 11 11 11 11 10 10 10 10 10 10 11 11 11 10 10 9 8 8 7 7 7 7 7 7 7 7
7 8 8 8 8 8 9 9 10 10 10 11 11 11 11 10 10 10 10 9 9 9 10 10 10 10 10 9 9 8 8 7 7 7 7 7 7 7
7 7 7 8 8 8 9 9 9 9 10 10 11 10 10 10 10 10 10 9 9 10 9 9 9 9 9 9 9 9 8 8 8 7 7 7 7 7
7 7 7 8 8 8 8 8 9 9 10 10 10 10 10 10 10 9 9 10 10 10 10 9 9 9 9 9 9 9 8 8 8 8 8 8 8 8
7 7 7 7 7 8 8 8 8 9 9 10 10 10 10 10 10 10 10 10 10 10 10 10 10 9 9 9 9 9 9 8 8 8 8 8 8 8
7 7 7 7 7 7 8 8 8 9 9 9 10 10 10 10 10 10 10 10 10 10 10 10 10 10 10 10 9 9 9 8 8 8 8 8 8 8
7 7 7 7 7 7 7 8 8 8 9 9 9 10 10 10 10 10 10 10 10 10 10 10 10 10 10 10 9 9 9 9 9 8 8 8 8 9
6 6 7 7 7 7 7 8 8 8 9 9 9 10 10 10 10 10 10 9 9 10 10 10 10 9 9 9 9 9 9 9 9 9 9 9 9 9
6 6 6 7 7 7 7 8 8 9 9 9 10 10 10 10 9 9 9 9 9 9 9 9 9 9 9 9 9 9 9 9 9 9 9 9 9 9
Wind_Speed
10 10 8 7 7 7 6 5 4 2 2 2 1 2 3 4 5 5 5 8 11 12 13 13 13 12 12 11 10 9 8 6 5 4 4 4 6 9
8 9 9 7 7 7 7 6 6 5 3 2 1 1 2 3 6 7 9 12 13 14 15 16 15 15 15 15 14 14 13 12 12 11 10 9 8 6
8 9 11 9 8 7 7 7 7 6 6 3 1 1 2 5 5 7 8 9 10 14 15 16 16 16 16 16 16 16 15 15 15 15 15 15 14 13
6 8 10 9 10 8 8 8 8 8 6 6 3 2 3 6 7 7 6 8 9 13 14 15 16 16 17 17 17 17 17 17 18 18 18 18 17 17
6 6 7 9 10 9 9 9 8 7 7 5 4 3 2 5 7 7 8 7 8 11 14 14 15 16 17 17 18 19 19 20 20 20 20 20 20 20
7 6 6 7 9 10 9 10 9 8 7 6 5 4 4 6 8 8 7 5 6 7 10 13 16 17 17 18 18 19 21 21 22 22 22 23 23 22
7 7 7 8 10 9 8 9 10 9 8 8 7 6 6 8 8 6 8 8 6 5 7 7 8 10 12 15 17 19 21 22 23 23 24 24 24 24
7 7 7 9 10 12 13 13 14 12 11 10 9 9 10 9 8 11 10 8 5 4 5 6 6 8 8 10 15 18 20 22 22 23 23 23 23 23
8 7 7 6 8 8 10 13 15 15 14 12 12 11 13 13 13 14 12 7 5 8 7 6 5 7 7 10 15 18 19 20 21 21 21 21 21 21
9 9 8 7 7 8 7 9 10 12 14 12 12 11 12 14 15 12 13 9 9 5 4 5 4 5 5 8 12 15 16 18 19 19 19 20 20 19
9 9 9 9 10 11 9 9 10 9 11 13 13 11 14 18 17 14 14 14 10 5 2 4 5 5 5 5 8 11 13 14 15 15 16 16 16 15
7 7 10 11 11 12 10 10 11 9 8 9 10 12 15 20 22 19 17 17 13 6 4 5 8 6 5 3 4 7 9 10 11 11 11 11 11 9
6 6 6 10 12 13 11 10 11 9 9 10 10 11 13 14 14 12 12 16 14 6 9 7 8 4 5 5 4 4 5 6 6 6 7 8 7 7
7 6 6 8 10 11 10 9 11 11 8 9 10 11 12 13 12 11 9 7 5 7 13 10 7 6 7 7 6 5 4 5 5 5 5 6 6 5
7 8 8 7 7 6 9 11 12 10 9 10 11 10 10 12 12 10 9 9 8 11 14 9 9 8 8 7 8 6 5 4 5 4 5 5 5 5
7 6 6 6 5 5 5 8 8 9 9 10 10 10 10 12 12 11 11 10 8 6 5 7 12 11 7 7 8 7 6 6 5 5 4 4 5 6
6 4 4 4 5 5 5 6 6 7 8 8 11 11 12 11 10 10 10 10 8 8 7 4 5 6 5 6 8 8 7 4 5 5 4 4 4 6
7 5 6 6 6 6 6 6 6 8 8 10 11 12 13 13 11 10 11 11 10 9 8 7 7 5 4 3 3 8 7 5 4 5 4 4 4 4
6 6 6 6 6 6 6 7 6 7 8 10 12 12 13 13 12 12 11 10 9 9 9 9 10 9 9 7 3 4 8 6 6 5 4 4 4 4
5 6 6 6 6 6 7 7 7 9 9 10 11 12 12 13 12 12 11 11 10 8 8 8 10 10 10 9 6 4 8 7 7 6 5 4 2 2
5 5 5 6 6 7 7 8 9 10 11 11 11 12 12 12 11 11 10 12 10 9 10 9 6 6 6 6 6 4 5 7 7 6 6 5 4 3
5 5 5 6 6 7 7 8 10 10 12 11 11 11 11 11 12 12 11 11 10 9 8 6 7 6 5 6 7 6 6 5 6 6 8 8 6 6
5 5 5 5 6 7 8 9 11 10 11 11 11 11 11 11 10 10 11 10 9 10 9 7 6 4 4 5 6 5 6 6 5 6 7 15 19 17
Wind_Direction
216 212 212 210 201 200 197 193 197 228 261 263 315 48 52 43 41 59 74 99 109 115 118 118 117 119 119 117 116 117 120 125 135 147 162 193 218 225
217 214 216 213 204 200 200 201 203 207 233 232 217 90 81 81 73 78 84 89 94 102 106 107 108 108 108 107 106 104 102 101 99 98 96 94 92 99
228 220 222 212 206 203 197 196 202 206 230 242 211 147 127 119 98 88 83 80 87 94 100 103 104 104 104 103 102 100 99 96 94 92 88 85 82 81
248 231 227 219 213 205 198 199 201 202 213 230 213 177 150 141 123 105 90 85 88 91 96 100 102 102 102 101 100 99 97 95 93 90 88 87 85 82
248 246 237 221 218 209 202 202 200 199 204 213 213 183 146 143 128 111 102 95 93 94 93 95 99 101 102 101 101 99 98 96 94 91 89 87 86 85
229 238 245 234 227 215 206 204 195 193 197 205 209 189 160 150 142 137 123 109 101 97 93 95 98 97 99 102 103 102 100 99 96 94 91 89 86 84
228 232 235 241 241 226 212 201 191 192 195 202 204 190 173 166 159 148 136 120 95 105 104 91 94 92 92 96 102 105 102 100 98 97 95 93 90 87
236 239 240 238 244 237 222 205 192 192 196 199 203 198 186 169 156 151 144 140 131 140 113 92 89 90 87 97 105 107 105 104 103 100 98 94 90 88
233 239 250 240 222 232 227 215 207 202 197 198 203 199 185 171 162 161 161 149 137 151 130 105 94 88 86 98 107 109 109 109 107 105 101 96 92 88
235 236 242 251 234 218 217 217 215 212 209 209 213 203 184 172 168 158 145 118 109 128 124 116 116 100 91 93 107 114 115 114 112 109 105 100 94 88
237 235 235 245 237 215 211 214 217 217 213 209 205 193 169 159 152 143 142 140 141 149 133 118 133 115 101 94 100 116 123 123 121 117 112 107 101 93
239 238 235 237 233 214 213 209 213 209 192 189 189 177 167 160 158 160 158 155 150 151 167 132 148 137 121 117 116 116 120 124 128 131 128 121 113 101
231 237 237 234 230 218 216 215 210 192 183 177 172 167 163 163 164 162 161 161 159 154 161 144 157 146 133 144 149 147 145 144 142 144 150 144 133 117
222 229 233 232 228 219 216 210 190 179 177 172 167 164 163 163 163 158 148 138 129 141 155 149 151 156 141 146 155 159 162 163 161 161 165 166 160 140
220 220 224 225 220 218 217 199 182 182 177 174 169 163 159 155 149 140 127 113 100 134 150 148 146 149 149 152 157 160 167 177 180 174 174 179 177 170
216 215 209 206 205 204 196 193 192 184 178 173 162 151 146 148 149 148 149 145 131 126 105 134 154 155 153 150 158 164 169 170 174 181 176 182 190 195
183 181 182 186 196 195 191 190 184 176 174 160 154 151 151 151 150 151 151 153 152 158 153 115 106 109 116 148 160 168 166 165 165 161 169 187 205 206
165 180 192 198 196 193 187 181 176 172 166 157 155 154 155 154 152 153 158 164 163 163 161 152 143 132 116 69 133 167 170 164 156 160 171 190 207 205
179 190 193 198 196 193 184 175 170 163 158 156 153 152 151 152 154 157 163 166 165 163 164 164 168 167 176 182 167 174 172 162 158 168 184 195 209 207
196 195 196 193 193 190 183 172 161 156 156 154 151 148 149 150 154 159 164 165 161 156 160 170 179 180 185 181 167 169 178 166 171 181 185 196 225 259
201 203 197 189 186 183 175 165 157 156 155 152 149 148 149 151 154 158 159 155 156 160 168 175 171 141 119 124 134 154 178 188 177 177 176 184 204 221
199 198 188 177 173 167 160 155 152 150 151 149 148 148 150 154 155 156 158 162 166 163 158 143 139 141 143 166 178 174 172 176 196 203 201 196 192 208
192 187 175 168 163 155 153 151 148 148 150 149 149 151 152 152 154 155 158 161 159 151 142 141 148 153 157 171 179 179 180 181 187 204 229 231 234 243
Height
1469 1470 1472 1473 1475 1476 1477 1479 1480 1478 1478 1479 1480 1480 1481 1482 1484 1486 1488 1489 1491 1493 1494 1496 1498 1499 1501 1503 1505 1506 1508 1510 1512 1513 1515 1517 1518 1520
1462 1464 1466 1468 1470 1472 1473 1474 1475 1476 1476 1476 1478 1479 1479 1480 1482 1484 1486 1487 1488 1490 1491 1493 1494 1496 1498 1499 1501 1503 1504 1506 1507 1509 1510 1511 1512 1514
1454 1456 1459 1462 1464 1466 1468 1469 1471 1472 1472 1473 1475 1477 1478 1479 1480 1482 1484 1485 1487 1488 1489 1491 1492 1494 1495 1497 1498 1500 1501 1503 1504 1505 1506 1507 1508 1509
1446 1448 1452 1455 1457 1460 1462 1464 1466 1468 1469 1469 1471 1474 1475 1477 1479 1481 1482 1484 1486 1487 1489 1490 1491 1493 1494 1495 1497 1498 1499 1501 1502 1503 1504 1505 1506 1507
1437 1440 1444 1447 1450 1453 1456 1458 1461 1463 1464 1466 1468 1470 1472 1474 1477 1480 1481 1483 1485 1486 1488 1490 1491 1492 1494 1495 1496 1497 1499 1500 1501 1502 1503 1504 1505 1506
1430 1432 1435 1438 1442 1445 1449 1452 1455 1457 1459 1461 1463 1466 1469 1471 1474 1477 1480 1482 1484 1486 1488 1489 1491 1492 1493 1495 1496 1497 1498 1500 1501 1502 1503 1504 1504 1505
1424 1425 1427 1430 1433 1437 1442 1445 1448 1451 1453 1455 1458 1462 1464 1467 1471 1474 1477 1480 1483 1485 1487 1489 1491 1492 1493 1495 1496 1498 1499 1500 1501 1502 1503 1504 1505 1506
1418 1419 1422 1423 1426 1429 1434 1438 1441 1444 1446 1449 1452 1455 1458 1462 1466 1470 1473 1477 1481 1484 1486 1488 1491 1492 1494 1496 1497 1499 1500 1501 1502 1503 1504 1505 1505 1506
1413 1414 1416 1417 1419 1423 1426 1430 1433 1437 1440 1443 1446 1449 1453 1456 1461 1466 1470 1474 1477 1481 1485 1487 1491 1492 1495 1497 1498 1500 1501 1502 1503 1504 1505 1505 1506 1507
1406 1407 1409 1411 1414 1417 1419 1422 1426 1429 1433 1437 1440 1444 1448 1452 1457 1461 1466 1471 1476 1481 1485 1486 1490 1493 1495 1497 1499 1501 1502 1503 1504 1505 1506 1506 1507 1508
1400 1402 1403 1405 1408 1410 1413 1415 1419 1423 1427 1431 1435 1439 1443 1448 1452 1457 1462 1467 1472 1479 1484 1486 1489 1492 1496 1498 1500 1502 1503 1504 1505 1507 1508 1508 1509 1509
1394 1396 1398 1400 1402 1404 1406 1409 1412 1416 1421 1425 1429 1433 1437 1442 1447 1452 1457 1462 1468 1475 1481 1484 1487 1491 1496 1499 1500 1502 1504 1505 1507 1508 1509 1510 1511 1511
1388 1390 1392 1394 1396 1398 1400 1402 1406 1411 1415 1419 1423 1428 1433 1437 1443 1448 1455 1460 1464 1469 1476 1481 1485 1489 1491 1496 1500 1502 1504 1506 1508 1509 1511 1512 1513 1513
1382 1385 1387 1389 1390 1392 1394 1397 1401 1405 1410 1414 1418 1423 1428 1434 1440 1446 1453 1459 1465 1470 1474 1479 1483 1487 1490 1494 1497 1501 1504 1506 1508 1510 1512 1513 1514 1515
1377 1379 1382 1384 1385 1387 1390 1393 1396 1400 1404 1409 1414 1419 1425 1432 1438 1445 1452 1459 1466 1472 1477 1481 1484 1487 1491 1493 1496 1499 1502 1505 1507 1510 1512 1513 1515 1516
1371 1374 1377 1379 1381 1383 1385 1388 1391 1395 1400 1405 1411 1417 1423 1430 1436 1443 1450 1457 1464 1471 1476 1481 1485 1488 1491 1493 1496 1499 1502 1504 1507 1509 1511 1513 1514 1515
1367 1370 1372 1374 1376 1378 1381 1383 1387 1392 1397 1402 1408 1414 1421 1428 1435 1442 1449 1456 1462 1468 1473 1478 1483 1488 1491 1494 1496 1498 1501 1503 1506 1508 1510 1512 1513 1515
1363 1365 1368 1370 1372 1374 1376 1380 1384 1388 1393 1399 1406 1412 1419 1425 1433 1441 1448 1454 1461 1466 1471 1476 1480 1485 1489 1493 1496 1497 1500 1502 1505 1506 1509 1510 1512 1514
1359 1362 1364 1366 1369 1371 1373 1377 1381 1386 1391 1398 1404 1411 1417 1425 1432 1439 1447 1453 1460 1465 1470 1474 1478 1482 1486 1489 1493 1496 1498 1501 1503 1505 1507 1509 1511 1512
1356 1359 1361 1363 1365 1368 1371 1375 1379 1384 1390 1396 1403 1410 1417 1424 1431 1438 1445 1451 1457 1463 1468 1472 1476 1480 1484 1487 1490 1493 1496 1499 1501 1503 1505 1507 1509 1511
1353 1355 1358 1360 1363 1366 1369 1373 1378 1383 1389 1396 1403 1410 1417 1424 1431 1438 1444 1450 1456 1461 1466 1470 1475 1479 1483 1486 1489 1491 1494 1496 1499 1501 1504 1505 1507 1508
1350 1353 1355 1357 1361 1364 1368 1372 1377 1383 1390 1396 1404 1411 1418 1425 1431 1437 1443 1449 1454 1459 1464 1469 1473 1477 1481 1484 1487 1489 1492 1495 1497 1499 1501 1503 1504 1506
1348 1351 1353 1357 1360 1364 1368 1372 1378 1384 1391 1398 1406 1413 1419 1426 1432 1437 1443 1448 1453 1458 1462 1467 1471 1475 1479 1482 1485 1488 1490 1492 1495 1497 1499 1500 1502 1503